Theta_e
339 340 340 340 340 340 340 339 337 335 334 334 333 332 332 333 334 335 335 335 334 334 332 330 329 330 330
342 332 334 336 336 337 335 333 331 332 332 331 331 331 331 333 334 334 334 333 332 329 327 327 327 329 328
337 329 329 330 331 330 329 327 326 329 329 326 326 330 330 331 333 334 331 328 330 328 326 325 326 325 326
336 332 333 332 331 330 330 329 328 328 328 328 324 326 327 329 333 331 329 329 327 325 324 325 322 324 324
333 332 329 329 329 329 330 329 328 328 330 332 333 331 334 324 334 332 330 326 323 322 320 320 322 321 321
330 328 328 327 328 329 331 329 329 330 331 332 332 333 336 333 331 330 327 320 319 318 320 320 320 318 318
328 327 327 326 327 329 330 330 329 330 331 332 331 332 329 327 326 326 321 315 317 317 318 317 314 313 314
326 324 324 325 327 330 330 329 330 330 332 331 330 327 325 323 322 318 314 312 315 316 313 310 308 308 309
324 324 324 327 329 329 328 329 330 330 332 329 325 321 318 318 320 318 311 311 314 313 308 305 304 303 303
324 324 325 328 328 329 328 329 331 329 326 321 317 313 312 316 313 310 308 308 311 311 304 300 298 299 299
324 324 327 328 326 326 327 328 326 324 321 315 312 309 310 311 309 306 305 308 308 304 296 295 295 297 298
324 325 323 321 320 316 315 319 320 317 314 309 307 306 307 307 305 303 302 303 302 299 293 292 294 297 299
322 322 317 313 311 308 306 307 309 310 308 306 304 303 303 302 302 301 298 298 297 297 295 294 294 296 297
323 320 318 313 310 306 303 302 302 302 302 302 301 300 299 297 295 295 298 295 294 295 297 299 295 294 294
323 321 312 305 302 301 300 299 299 299 300 299 299 296 295 294 292 292 294 296 293 295 295 295 295 294 294
322 312 307 309 304 304 299 298 298 298 296 295 294 293 293 292 291 292 293 295 298 294 295 293 293 293 291
Wind_Speed
11 12 14 14 13 11 11 11 11 9 8 8 7 6 6 6 6 6 6 6 6 7 7 6 4 7 8
12 10 10 11 10 10 9 9 9 9 8 6 6 5 5 5 5 6 6 6 6 6 6 6 7 9 9
10 7 9 10 9 9 9 8 8 7 8 8 7 4 4 4 5 6 5 4 1 5 5 4 8 6 8
9 9 10 10 9 9 9 10 7 7 6 5 6 4 3 3 6 6 3 4 5 4 3 2 5 7 8
10 8 6 6 6 6 9 9 6 6 5 5 6 5 6 7 5 5 3 6 7 6 6 5 6 7 7
8 8 8 7 6 6 7 8 6 5 6 5 3 4 3 4 3 4 4 5 6 6 7 8 8 7 6
10 8 8 8 7 8 8 8 7 6 5 4 3 4 4 3 4 3 4 4 5 6 7 8 9 8 8
10 10 8 8 9 8 8 8 8 6 4 3 4 4 3 3 2 4 4 3 4 6 8 8 8 8 8
11 9 8 8 6 6 5 8 8 5 5 5 4 3 3 3 2 3 4 3 5 6 8 7 7 10 8
11 9 7 6 6 4 6 6 5 6 6 6 3 4 3 2 3 3 3 3 4 5 6 7 7 7 8
13 10 8 5 4 4 4 5 6 6 7 6 4 4 4 3 3 3 4 3 6 6 7 6 5 4 5
11 9 7 5 6 5 4 3 7 6 6 6 5 5 4 4 5 5 6 7 5 6 7 6 3 3 3
11 10 9 7 6 5 5 6 5 5 6 6 5 6 5 5 5 6 6 6 5 4 4 2 3 4 5
10 9 7 9 6 7 6 6 7 6 6 6 6 7 7 6 6 5 3 3 3 1 0 4 5 4 4
15 10 9 8 6 5 6 6 7 8 9 9 9 7 7 5 5 4 3 3 3 2 5 3 2 1 6
15 13 16 10 10 6 8 8 8 10 9 9 9 8 7 5 6 5 4 4 2 5 4 5 6 5 2
Wind_Direction
146 147 148 147 150 143 143 134 130 133 133 123 115 112 103 92 80 62 48 44 53 50 34 17 346 306 316
149 123 125 128 126 126 119 112 115 113 115 116 132 111 103 87 70 65 66 60 70 73 37 348 308 285 36
133 127 113 110 114 119 121 121 151 161 170 169 83 103 92 79 88 80 63 32 228 124 93 325 297 43 49
147 156 156 145 164 174 169 168 189 160 154 138 126 153 143 155 134 128 151 239 307 17 63 262 45 59 61
157 172 161 164 171 169 173 182 173 168 161 186 157 173 172 192 180 185 50 35 30 24 38 39 65 63 73
165 181 170 174 174 176 176 185 169 184 185 183 178 160 132 47 49 41 58 44 46 55 55 59 52 64 73
183 188 175 177 180 180 171 184 186 191 186 192 122 80 77 79 39 31 65 55 69 62 68 71 72 73 83
186 184 177 180 184 175 175 178 201 192 186 142 128 95 84 72 68 51 52 75 77 84 70 74 74 70 70
188 179 181 180 161 186 178 175 187 193 125 106 99 116 75 79 101 111 85 89 103 91 84 74 56 52 56
186 180 180 171 178 174 172 172 141 133 132 114 94 104 111 105 90 85 99 109 107 109 87 61 65 64 71
180 175 167 126 103 107 125 131 146 122 126 114 119 111 125 110 95 91 73 91 98 87 88 75 74 72 86
168 154 113 127 129 131 117 114 143 128 123 114 117 110 109 104 93 79 88 54 49 91 97 95 105 118 102
174 152 152 155 148 122 91 84 81 102 103 109 107 105 91 82 78 89 91 89 58 76 109 104 131 97 87
165 158 165 145 142 120 110 90 88 85 89 91 91 88 82 89 72 57 58 112 88 43 241 199 167 153 106
168 157 122 102 109 125 124 103 84 81 78 80 85 87 80 81 82 69 47 100 126 91 53 339 277 69 140
159 154 162 163 160 159 135 112 92 73 69 74 77 74 69 62 64 61 35 28 56 111 95 56 45 14 317